,,,PA_Meas_PMT16A,,PR_Meas_QMR101_102,,RH_Meas_QMH101,,SR_Meas_QMS101,,TA_Meas_QMH101,,GenWind,,GenWind,
date,time,status,PA,status,PR,status,RH,status,SR,status,TA,status,DirAvg,status,SpdAvg,
2011-08-26, 00:00:05,VALID,1008.694,VALID,0.0,VALID,82.114,VALID,0.0,VALID,24.805,VALID,166.0,VALID,2.047,
2011-08-26, 00:01:05,VALID,1008.698,VALID,0.0,VALID,82.106,VALID,0.106,VALID,24.805,VALID,185.0,VALID,1.098,
2011-08-26, 00:02:05,VALID,1008.73,VALID,0.0,VALID,81.992,VALID,0.0,VALID,24.805,VALID,189.0,VALID,1.196,
2011-08-26, 00:03:05,VALID,1008.703,VALID,0.0,VALID,82.076,VALID,0.0,VALID,24.805,VALID,186.0,VALID,1.042,
2011-08-26, 00:04:05,VALID,1008.726,VALID,0.0,VALID,82.145,VALID,0.0,VALID,24.766,VALID,159.0,VALID,1.019,
2011-08-26, 00:05:05,VALID,1008.721,VALID,0.0,VALID,82.061,VALID,0.0,VALID,24.766,VALID,182.0,VALID,1.998,
2011-08-26, 00:06:05,VALID,1008.689,VALID,0.0,VALID,82.023,VALID,0.0,VALID,24.785,VALID,175.0,VALID,1.005,
2011-08-26, 00:07:05,VALID,1008.692,VALID,0.0,VALID,82.03,VALID,0.0,VALID,24.766,VALID,193.0,VALID,1.745,
2011-08-26, 00:08:05,VALID,1008.702,VALID,0.0,VALID,82.099,VALID,0.0,VALID,24.766,VALID,173.0,VALID,1.073,
2011-08-26, 00:09:05,VALID,1008.696,VALID,0.0,VALID,81.946,VALID,0.0,VALID,24.766,VALID,163.0,VALID,1.559,
2011-08-26, 00:10:05,VALID,1008.677,VALID,0.0,VALID,81.893,VALID,0.0,VALID,24.766,VALID,167.0,VALID,2.026,
2011-08-26, 00:11:05,VALID,1008.641,VALID,0.0,VALID,81.687,VALID,0.106,VALID,24.766,VALID,148.0,VALID,2.243,
2011-08-26, 00:12:05,VALID,1008.662,VALID,0.0,VALID,81.649,VALID,0.0,VALID,24.766,VALID,181.0,VALID,2.021,
2011-08-26, 00:13:05,VALID,1008.629,VALID,0.0,VALID,81.695,VALID,0.0,VALID,24.766,VALID,169.0,VALID,1.327,
2011-08-26, 00:14:05,VALID,1008.631,VALID,0.0,VALID,81.786,VALID,0.0,VALID,24.706,VALID,165.0,VALID,2.073,
2011-08-26, 00:15:05,VALID,1008.624,VALID,0.0,VALID,81.832,VALID,0.0,VALID,24.727,VALID,164.0,VALID,1.371,
2011-08-26, 00:16:05,VALID,1008.602,VALID,0.0,VALID,81.824,VALID,0.0,VALID,24.727,VALID,177.0,VALID,1.299,
2011-08-26, 00:17:05,VALID,1008.646,VALID,0.0,VALID,81.954,VALID,0.0,VALID,24.707,VALID,192.0,VALID,1.332,
2011-08-26, 00:18:05,VALID,1008.661,VALID,0.0,VALID,82.007,VALID,0.0,VALID,24.686,VALID,192.0,VALID,1.28,
2011-08-26, 00:19:05,VALID,1008.706,VALID,0.0,VALID,82.053,VALID,0.106,VALID,24.688,VALID,166.0,VALID,0.846,
2011-08-26, 00:20:05,VALID,1008.718,VALID,0.0,VALID,82.053,VALID,0.0,VALID,24.628,VALID,177.0,VALID,0.944,
2011-08-26, 00:21:05,VALID,1008.733,VALID,0.0,VALID,82.152,VALID,0.0,VALID,24.647,VALID,193.0,VALID,1.138,
2011-08-26, 00:22:05,VALID,1008.747,VALID,0.0,VALID,82.122,VALID,0.0,VALID,24.649,VALID,187.0,VALID,1.125,
2011-08-26, 00:23:05,VALID,1008.733,VALID,0.0,VALID,82.061,VALID,0.0,VALID,24.649,VALID,204.0,VALID,1.094,
2011-08-26, 00:24:05,VALID,1008.707,VALID,0.0,VALID,82.076,VALID,0.0,VALID,24.61,VALID,166.0,VALID,1.636,
2011-08-26, 00:25:05,VALID,1008.723,VALID,0.0,VALID,82.206,VALID,0.0,VALID,24.629,VALID,184.0,VALID,1.008,
2011-08-26, 00:26:05,VALID,1008.714,VALID,0.0,VALID,82.023,VALID,0.0,VALID,24.629,VALID,183.0,VALID,1.696,
2011-08-26, 00:27:05,VALID,1008.683,VALID,0.0,VALID,82.076,VALID,0.0,VALID,24.61,VALID,169.0,VALID,0.866,
2011-08-26, 00:28:05,VALID,1008.663,VALID,0.0,VALID,82.045,VALID,0.0,VALID,24.631,VALID,187.0,VALID,1.851,
2011-08-26, 00:29:05,VALID,1008.649,VALID,0.0,VALID,82.0,VALID,0.0,VALID,24.61,VALID,179.0,VALID,1.696,
2011-08-26, 00:30:05,VALID,1008.62,VALID,0.0,VALID,81.893,VALID,0.0,VALID,24.61,VALID,188.0,VALID,1.441,
2011-08-26, 00:31:05,VALID,1008.608,VALID,0.0,VALID,81.809,VALID,0.0,VALID,24.61,VALID,202.0,VALID,1.608,
2011-08-26, 00:32:05,VALID,1008.605,VALID,0.0,VALID,81.618,VALID,0.0,VALID,24.629,VALID,183.0,VALID,1.1,
2011-08-26, 00:33:05,VALID,1008.589,VALID,0.0,VALID,81.649,VALID,0.0,VALID,24.608,VALID,189.0,VALID,1.182,
2011-08-26, 00:34:05,VALID,1008.545,VALID,0.0,VALID,81.55,VALID,0.0,VALID,24.61,VALID,181.0,VALID,1.858,
2011-08-26, 00:35:05,VALID,1008.537,VALID,0.0,VALID,81.42,VALID,0.106,VALID,24.629,VALID,198.0,VALID,1.547,
2011-08-26, 00:36:05,VALID,1008.508,VALID,0.0,VALID,81.481,VALID,0.0,VALID,24.629,VALID,169.0,VALID,0.986,
2011-08-26, 00:37:05,VALID,1008.493,VALID,0.0,VALID,81.359,VALID,0.0,VALID,24.61,VALID,171.0,VALID,1.029,
2011-08-26, 00:38:05,VALID,1008.495,VALID,0.0,VALID,81.443,VALID,0.0,VALID,24.61,VALID,206.0,VALID,1.004,
2011-08-26, 00:39:05,VALID,1008.469,VALID,0.0,VALID,81.245,VALID,0.0,VALID,24.59,VALID,181.0,VALID,1.174,
2011-08-26, 00:40:05,VALID,1008.454,VALID,0.0,VALID,81.054,VALID,0.0,VALID,24.61,VALID,191.0,VALID,1.588,
2011-08-26, 00:41:05,VALID,1008.446,VALID,0.0,VALID,80.719,VALID,0.0,VALID,24.629,VALID,174.0,VALID,2.094,
2011-08-26, 00:42:05,VALID,1008.409,VALID,0.0,VALID,80.574,VALID,0.0,VALID,24.668,VALID,180.0,VALID,2.415,
2011-08-26, 00:43:05,VALID,1008.414,VALID,0.0,VALID,80.33,VALID,0.0,VALID,24.688,VALID,160.0,VALID,1.894,
2011-08-26, 00:44:05,VALID,1008.406,VALID,0.0,VALID,80.375,VALID,0.0,VALID,24.688,VALID,205.0,VALID,0.982,
2011-08-26, 00:45:04,VALID,1008.376,VALID,0.0,VALID,80.383,VALID,0.0,VALID,24.649,VALID,180.0,VALID,1.745,
2011-08-26, 00:46:04,VALID,1008.381,VALID,0.0,VALID,80.65,VALID,0.0,VALID,24.631,VALID,187.0,VALID,1.379,
2011-08-26, 00:47:04,VALID,1008.361,VALID,0.0,VALID,80.566,VALID,0.0,VALID,24.59,VALID,196.0,VALID,2.009,
2011-08-26, 00:48:04,VALID,1008.348,VALID,0.0,VALID,80.741,VALID,0.0,VALID,24.571,VALID,153.0,VALID,1.659,
2011-08-26, 00:49:04,VALID,1008.311,VALID,0.0,VALID,80.452,VALID,0.0,VALID,24.571,VALID,180.0,VALID,2.314,
2011-08-26, 00:50:04,VALID,1008.311,VALID,0.0,VALID,80.131,VALID,0.0,VALID,24.61,VALID,168.0,VALID,1.749,
2011-08-26, 00:51:04,VALID,1008.285,VALID,0.0,VALID,80.269,VALID,0.0,VALID,24.629,VALID,177.0,VALID,1.581,
2011-08-26, 00:52:04,VALID,1008.299,VALID,0.0,VALID,80.048,VALID,0.0,VALID,24.61,VALID,165.0,VALID,1.977,
2011-08-26, 00:53:04,VALID,1008.268,VALID,0.0,VALID,80.192,VALID,0.0,VALID,24.629,VALID,196.0,VALID,1.276,
2011-08-26, 00:54:04,VALID,1008.266,VALID,0.0,VALID,80.025,VALID,0.0,VALID,24.631,VALID,194.0,VALID,2.094,
2011-08-26, 00:55:04,VALID,1008.277,VALID,0.0,VALID,80.048,VALID,0.0,VALID,24.61,VALID,179.0,VALID,2.021,
2011-08-26, 00:56:04,VALID,1008.26,VALID,0.0,VALID,80.246,VALID,0.0,VALID,24.592,VALID,171.0,VALID,1.354,
2011-08-26, 00:57:04,VALID,1008.277,VALID,0.0,VALID,80.009,VALID,0.0,VALID,24.571,VALID,157.0,VALID,2.46,
2011-08-26, 00:58:04,VALID,1008.232,VALID,0.0,VALID,80.063,VALID,0.0,VALID,24.571,VALID,184.0,VALID,1.688,
2011-08-26, 00:59:04,VALID,1008.258,VALID,0.0,VALID,80.185,VALID,0.0,VALID,24.551,VALID,166.0,VALID,1.413,
2011-08-26, 01:00:04,VALID,1008.263,VALID,0.0,VALID,80.345,VALID,0.0,VALID,24.514,VALID,168.0,VALID,1.538,
2011-08-26, 01:01:04,VALID,1008.212,VALID,0.0,VALID,80.124,VALID,0.0,VALID,24.532,VALID,164.0,VALID,1.713,
2011-08-26, 01:02:04,VALID,1008.211,VALID,0.0,VALID,80.215,VALID,0.0,VALID,24.512,VALID,180.0,VALID,1.323,
2011-08-26, 01:03:04,VALID,1008.212,VALID,0.0,VALID,80.314,VALID,0.0,VALID,24.493,VALID,185.0,VALID,2.041,
2011-08-26, 01:04:04,VALID,1008.184,VALID,0.0,VALID,80.444,VALID,0.0,VALID,24.514,VALID,188.0,VALID,2.05,
2011-08-26, 01:05:04,VALID,1008.181,VALID,0.0,VALID,80.391,VALID,0.0,VALID,24.474,VALID,189.0,VALID,1.671,
2011-08-26, 01:06:04,VALID,1008.172,VALID,0.0,VALID,80.52,VALID,0.0,VALID,24.435,VALID,189.0,VALID,1.47,
2011-08-26, 01:07:04,VALID,1008.158,VALID,0.0,VALID,80.635,VALID,0.0,VALID,24.415,VALID,182.0,VALID,1.463,
2011-08-26, 01:08:04,VALID,1008.155,VALID,0.0,VALID,80.475,VALID,0.0,VALID,24.415,VALID,183.0,VALID,3.32,
2011-08-26, 01:09:04,VALID,1008.158,VALID,0.0,VALID,80.589,VALID,0.0,VALID,24.435,VALID,178.0,VALID,1.366,
2011-08-26, 01:10:04,VALID,1008.152,VALID,0.0,VALID,80.505,VALID,0.0,VALID,24.396,VALID,174.0,VALID,2.16,
2011-08-26, 01:11:04,VALID,1008.157,VALID,0.0,VALID,80.558,VALID,0.0,VALID,24.396,VALID,188.0,VALID,1.948,
2011-08-26, 01:12:04,VALID,1008.126,VALID,0.0,VALID,80.337,VALID,0.0,VALID,24.435,VALID,182.0,VALID,2.372,
2011-08-26, 01:13:04,VALID,1008.15,VALID,0.0,VALID,80.497,VALID,0.0,VALID,24.415,VALID,194.0,VALID,1.383,
2011-08-26, 01:14:04,VALID,1008.13,VALID,0.0,VALID,80.429,VALID,0.0,VALID,24.396,VALID,168.0,VALID,1.623,
2011-08-26, 01:15:04,VALID,1008.13,VALID,0.0,VALID,80.536,VALID,0.0,VALID,24.376,VALID,158.0,VALID,2.6,
2011-08-26, 01:16:04,VALID,1008.124,VALID,0.0,VALID,80.558,VALID,0.0,VALID,24.357,VALID,161.0,VALID,2.473,
2011-08-26, 01:17:04,VALID,1008.096,VALID,0.0,VALID,80.49,VALID,0.0,VALID,24.337,VALID,193.0,VALID,2.73,
2011-08-26, 01:18:04,VALID,1008.089,VALID,0.0,VALID,80.429,VALID,0.0,VALID,24.378,VALID,179.0,VALID,1.789,
2011-08-26, 01:19:04,VALID,1008.061,VALID,0.0,VALID,80.444,VALID,0.0,VALID,24.376,VALID,183.0,VALID,2.423,
2011-08-26, 01:20:04,VALID,1008.078,VALID,0.0,VALID,80.566,VALID,0.0,VALID,24.358,VALID,169.0,VALID,1.594,
2011-08-26, 01:21:04,VALID,1008.078,VALID,0.0,VALID,80.566,VALID,0.0,VALID,24.298,VALID,183.0,VALID,1.985,
2011-08-26, 01:22:04,VALID,1008.09,VALID,0.0,VALID,80.665,VALID,0.0,VALID,24.318,VALID,178.0,VALID,2.171,
2011-08-26, 01:23:04,VALID,1008.095,VALID,0.0,VALID,80.513,VALID,0.0,VALID,24.337,VALID,172.0,VALID,2.019,
2011-08-26, 01:24:04,VALID,1008.081,VALID,0.0,VALID,80.246,VALID,0.0,VALID,24.357,VALID,164.0,VALID,2.067,
2011-08-26, 01:25:04,VALID,1008.072,VALID,0.0,VALID,80.086,VALID,0.0,VALID,24.417,VALID,180.0,VALID,2.098,
2011-08-26, 01:26:04,VALID,1008.048,VALID,0.0,VALID,80.063,VALID,0.0,VALID,24.396,VALID,155.0,VALID,2.532,
2011-08-26, 01:27:04,VALID,1008.072,VALID,0.0,VALID,79.964,VALID,0.0,VALID,24.396,VALID,174.0,VALID,2.655,
2011-08-26, 01:28:04,VALID,1008.099,VALID,0.0,VALID,80.025,VALID,0.0,VALID,24.396,VALID,179.0,VALID,1.504,
2011-08-26, 01:29:04,VALID,1008.09,VALID,0.0,VALID,80.017,VALID,0.0,VALID,24.376,VALID,159.0,VALID,1.711,
2011-08-26, 01:30:04,VALID,1008.146,VALID,0.0,VALID,80.192,VALID,0.0,VALID,24.357,VALID,177.0,VALID,1.402,
2011-08-26, 01:31:04,VALID,1008.15,VALID,0.0,VALID,80.36,VALID,0.0,VALID,24.318,VALID,160.0,VALID,1.359,
2011-08-26, 01:32:04,VALID,1008.159,VALID,0.0,VALID,80.452,VALID,0.0,VALID,24.298,VALID,198.0,VALID,1.727,
2011-08-26, 01:33:04,VALID,1008.192,VALID,0.0,VALID,80.543,VALID,0.0,VALID,24.298,VALID,196.0,VALID,1.06,
2011-08-26, 01:34:04,VALID,1008.165,VALID,0.0,VALID,80.604,VALID,0.0,VALID,24.24,VALID,173.0,VALID,1.589,
2011-08-26, 01:35:04,VALID,1008.141,VALID,0.0,VALID,80.772,VALID,0.0,VALID,24.24,VALID,187.0,VALID,0.884,
2011-08-26, 01:36:04,VALID,1008.121,VALID,0.0,VALID,80.734,VALID,0.0,VALID,24.24,VALID,178.0,VALID,1.854,
2011-08-26, 01:37:04,VALID,1008.087,VALID,0.0,VALID,80.802,VALID,0.0,VALID,24.24,VALID,178.0,VALID,1.525,
2011-08-26, 01:38:04,VALID,1008.08,VALID,0.0,VALID,80.696,VALID,0.0,VALID,24.22,VALID,172.0,VALID,1.968,
2011-08-26, 01:39:04,VALID,1008.111,VALID,0.0,VALID,80.741,VALID,0.0,VALID,24.261,VALID,165.0,VALID,1.402,
2011-08-26, 01:40:04,VALID,1008.103,VALID,0.0,VALID,80.924,VALID,0.0,VALID,24.201,VALID,190.0,VALID,1.328,
2011-08-26, 01:41:04,VALID,1008.125,VALID,0.0,VALID,81.024,VALID,0.0,VALID,24.181,VALID,177.0,VALID,1.185,
2011-08-26, 01:42:04,VALID,1008.135,VALID,0.0,VALID,80.871,VALID,0.0,VALID,24.181,VALID,177.0,VALID,2.799,
2011-08-26, 01:43:04,VALID,1008.155,VALID,0.0,VALID,80.558,VALID,0.0,VALID,24.261,VALID,181.0,VALID,2.017,
2011-08-26, 01:44:04,VALID,1008.156,VALID,0.0,VALID,80.604,VALID,0.0,VALID,24.28,VALID,183.0,VALID,0.924,
2011-08-26, 01:45:04,VALID,1008.156,VALID,0.0,VALID,80.711,VALID,0.0,VALID,24.22,VALID,180.0,VALID,0.62,
2011-08-26, 01:46:04,VALID,1008.143,VALID,0.0,VALID,80.863,VALID,0.0,VALID,24.162,VALID,174.0,VALID,1.046,
2011-08-26, 01:47:04,VALID,1008.137,VALID,0.0,VALID,80.94,VALID,0.0,VALID,24.203,VALID,167.0,VALID,1.597,
2011-08-26, 01:48:04,VALID,1008.106,VALID,0.0,VALID,80.841,VALID,0.0,VALID,24.181,VALID,186.0,VALID,1.736,
2011-08-26, 01:49:04,VALID,1008.096,VALID,0.0,VALID,80.902,VALID,0.0,VALID,24.183,VALID,170.0,VALID,0.624,
2011-08-26, 01:50:04,VALID,1008.108,VALID,0.0,VALID,80.963,VALID,0.0,VALID,24.162,VALID,176.0,VALID,0.728,
2011-08-26, 01:51:04,VALID,1008.126,VALID,0.0,VALID,81.092,VALID,0.0,VALID,24.142,VALID,171.0,VALID,0.964,
2011-08-26, 01:52:04,VALID,1008.14,VALID,0.0,VALID,81.161,VALID,0.0,VALID,24.123,VALID,151.0,VALID,1.175,
2011-08-26, 01:53:04,VALID,1008.14,VALID,0.0,VALID,81.161,VALID,0.0,VALID,24.123,VALID,155.0,VALID,1.064,
2011-08-26, 01:54:04,VALID,1008.198,VALID,0.0,VALID,81.252,VALID,0.0,VALID,24.084,VALID,154.0,VALID,1.073,
2011-08-26, 01:55:04,VALID,1008.167,VALID,0.0,VALID,81.008,VALID,0.0,VALID,24.123,VALID,172.0,VALID,1.878,
2011-08-26, 01:56:04,VALID,1008.17,VALID,0.0,VALID,81.062,VALID,0.0,VALID,24.142,VALID,164.0,VALID,1.533,
2011-08-26, 01:57:04,VALID,1008.15,VALID,0.0,VALID,81.207,VALID,0.0,VALID,24.103,VALID,152.0,VALID,0.981,
2011-08-26, 01:58:04,VALID,1008.122,VALID,0.0,VALID,81.237,VALID,0.0,VALID,24.084,VALID,180.0,VALID,0.767,
2011-08-26, 01:59:04,VALID,1008.142,VALID,0.0,VALID,81.352,VALID,0.0,VALID,24.064,VALID,148.0,VALID,1.002,
2011-08-26, 02:00:04,VALID,1008.137,VALID,0.0,VALID,81.519,VALID,0.0,VALID,24.045,VALID,149.0,VALID,0.63,
2011-08-26, 02:01:04,VALID,1008.165,VALID,0.0,VALID,81.824,VALID,0.0,VALID,24.006,VALID,188.0,VALID,0.903,
2011-08-26, 02:02:04,VALID,1008.16,VALID,0.0,VALID,81.916,VALID,0.0,VALID,23.947,VALID,159.0,VALID,0.762,
2011-08-26, 02:03:04,VALID,1008.146,VALID,0.0,VALID,82.106,VALID,0.0,VALID,23.947,VALID,182.0,VALID,0.945,
2011-08-26, 02:04:04,VALID,1008.179,VALID,0.0,VALID,82.244,VALID,0.0,VALID,23.928,VALID,174.0,VALID,0.518,
2011-08-26, 02:05:04,VALID,1008.18,VALID,0.0,VALID,82.251,VALID,0.0,VALID,23.889,VALID,168.0,VALID,2.431,
2011-08-26, 02:06:04,VALID,1008.173,VALID,0.0,VALID,81.84,VALID,0.0,VALID,23.986,VALID,177.0,VALID,2.051,
2011-08-26, 02:07:04,VALID,1008.172,VALID,0.0,VALID,81.344,VALID,0.0,VALID,24.064,VALID,149.0,VALID,1.348,
2011-08-26, 02:08:04,VALID,1008.187,VALID,0.0,VALID,81.313,VALID,0.0,VALID,24.045,VALID,133.0,VALID,0.463,
2011-08-26, 02:09:04,VALID,1008.158,VALID,0.0,VALID,81.489,VALID,0.0,VALID,24.025,VALID,167.0,VALID,1.278,
2011-08-26, 02:10:04,VALID,1008.162,VALID,0.0,VALID,81.664,VALID,0.0,VALID,24.027,VALID,162.0,VALID,0.69,
2011-08-26, 02:11:04,VALID,1008.175,VALID,0.0,VALID,81.763,VALID,0.0,VALID,23.947,VALID,176.0,VALID,0.769,
2011-08-26, 02:12:04,VALID,1008.139,VALID,0.0,VALID,81.939,VALID,0.0,VALID,23.928,VALID,185.0,VALID,0.974,
2011-08-26, 02:13:04,VALID,1008.131,VALID,0.0,VALID,82.152,VALID,0.0,VALID,23.908,VALID,157.0,VALID,0.532,
2011-08-26, 02:14:04,VALID,1008.141,VALID,0.0,VALID,82.32,VALID,0.0,VALID,23.889,VALID,166.0,VALID,1.238,
2011-08-26, 02:15:04,VALID,1008.149,VALID,0.0,VALID,82.229,VALID,0.0,VALID,23.908,VALID,159.0,VALID,1.666,
2011-08-26, 02:16:04,VALID,1008.206,VALID,0.0,VALID,82.312,VALID,0.0,VALID,23.889,VALID,189.0,VALID,0.677,
2011-08-26, 02:17:04,VALID,1008.232,VALID,0.0,VALID,82.351,VALID,0.0,VALID,23.91,VALID,173.0,VALID,0.972,
2011-08-26, 02:18:04,VALID,1008.212,VALID,0.0,VALID,82.442,VALID,0.0,VALID,23.85,VALID,196.0,VALID,1.301,
2011-08-26, 02:19:04,VALID,1008.255,VALID,0.0,VALID,82.602,VALID,0.0,VALID,23.809,VALID,191.0,VALID,0.759,
2011-08-26, 02:20:04,VALID,1008.229,VALID,0.0,VALID,82.808,VALID,0.0,VALID,23.772,VALID,183.0,VALID,1.388,
2011-08-26, 02:21:04,VALID,1008.239,VALID,0.0,VALID,82.945,VALID,0.0,VALID,23.791,VALID,179.0,VALID,1.361,
2011-08-26, 02:22:04,VALID,1008.219,VALID,0.0,VALID,82.945,VALID,0.0,VALID,23.791,VALID,163.0,VALID,0.906,
2011-08-26, 02:23:04,VALID,1008.223,VALID,0.0,VALID,83.029,VALID,0.0,VALID,23.772,VALID,162.0,VALID,1.286,
2011-08-26, 02:24:04,VALID,1008.227,VALID,0.0,VALID,83.159,VALID,0.0,VALID,23.733,VALID,182.0,VALID,1.056,
2011-08-26, 02:25:04,VALID,1008.203,VALID,0.0,VALID,83.235,VALID,0.0,VALID,23.754,VALID,159.0,VALID,1.078,
2011-08-26, 02:26:04,VALID,1008.219,VALID,0.0,VALID,83.311,VALID,0.0,VALID,23.733,VALID,170.0,VALID,1.504,
2011-08-26, 02:27:04,VALID,1008.227,VALID,0.0,VALID,83.304,VALID,0.0,VALID,23.735,VALID,173.0,VALID,1.054,
2011-08-26, 02:28:04,VALID,1008.228,VALID,0.0,VALID,83.449,VALID,0.0,VALID,23.733,VALID,186.0,VALID,1.375,
2011-08-26, 02:29:04,VALID,1008.249,VALID,0.0,VALID,83.563,VALID,0.0,VALID,23.713,VALID,154.0,VALID,1.176,
2011-08-26, 02:30:04,VALID,1008.234,VALID,0.0,VALID,83.708,VALID,0.0,VALID,23.694,VALID,163.0,VALID,0.668,
2011-08-26, 02:31:04,VALID,1008.265,VALID,0.0,VALID,84.059,VALID,0.0,VALID,23.675,VALID,161.0,VALID,2.382,
2011-08-26, 02:32:04,VALID,1008.259,VALID,0.0,VALID,84.021,VALID,0.0,VALID,23.713,VALID,171.0,VALID,1.48,
2011-08-26, 02:33:04,VALID,1008.273,VALID,0.0,VALID,84.043,VALID,0.0,VALID,23.675,VALID,178.0,VALID,1.574,
2011-08-26, 02:34:04,VALID,1008.277,VALID,0.0,VALID,83.876,VALID,0.0,VALID,23.713,VALID,172.0,VALID,0.783,
2011-08-26, 02:35:04,VALID,1008.278,VALID,0.0,VALID,83.899,VALID,0.0,VALID,23.735,VALID,170.0,VALID,1.515,
2011-08-26, 02:36:04,VALID,1008.318,VALID,0.0,VALID,84.005,VALID,0.0,VALID,23.715,VALID,177.0,VALID,1.199,
2011-08-26, 02:37:04,VALID,1008.319,VALID,0.0,VALID,84.12,VALID,0.0,VALID,23.696,VALID,179.0,VALID,1.206,
2011-08-26, 02:38:04,VALID,1008.329,VALID,0.0,VALID,84.097,VALID,0.0,VALID,23.713,VALID,165.0,VALID,1.271,
2011-08-26, 02:39:04,VALID,1008.352,VALID,0.0,VALID,84.112,VALID,0.0,VALID,23.713,VALID,165.0,VALID,1.302,
2011-08-26, 02:40:04,VALID,1008.353,VALID,0.0,VALID,84.196,VALID,0.0,VALID,23.694,VALID,164.0,VALID,1.003,
2011-08-26, 02:41:04,VALID,1008.356,VALID,0.0,VALID,84.356,VALID,0.0,VALID,23.696,VALID,172.0,VALID,1.117,
2011-08-26, 02:42:04,VALID,1008.351,VALID,0.0,VALID,84.562,VALID,0.0,VALID,23.675,VALID,185.0,VALID,0.961,
2011-08-26, 02:43:04,VALID,1008.36,VALID,0.0,VALID,84.974,VALID,0.0,VALID,23.637,VALID,182.0,VALID,0.781,
2011-08-26, 02:44:04,VALID,1008.349,VALID,0.0,VALID,85.874,VALID,0.0,VALID,23.577,VALID,178.0,VALID,0.623,
2011-08-26, 02:45:04,VALID,1008.328,VALID,0.0,VALID,86.766,VALID,0.0,VALID,23.558,VALID,176.0,VALID,0.975,
2011-08-26, 02:46:04,VALID,1008.331,VALID,0.0,VALID,87.002,VALID,0.0,VALID,23.52,VALID,155.0,VALID,0.677,
2011-08-26, 02:47:04,VALID,1008.309,VALID,0.0,VALID,87.689,VALID,0.0,VALID,23.52,VALID,151.0,VALID,1.265,
2011-08-26, 02:48:04,VALID,1008.316,VALID,0.0,VALID,87.818,VALID,0.0,VALID,23.499,VALID,151.0,VALID,0.851,
2011-08-26, 02:49:04,VALID,1008.329,VALID,0.0,VALID,87.986,VALID,0.0,VALID,23.462,VALID,152.0,VALID,0.721,
2011-08-26, 02:50:04,VALID,1008.308,VALID,0.0,VALID,88.527,VALID,0.0,VALID,23.441,VALID,151.0,VALID,0.717,
2011-08-26, 02:51:04,VALID,1008.327,VALID,0.0,VALID,89.084,VALID,0.0,VALID,23.402,VALID,156.0,VALID,1.328,
2011-08-26, 02:52:04,VALID,1008.316,VALID,0.0,VALID,89.458,VALID,0.0,VALID,23.402,VALID,161.0,VALID,1.06,
2011-08-26, 02:53:04,VALID,1008.272,VALID,0.0,VALID,89.534,VALID,0.0,VALID,23.423,VALID,163.0,VALID,0.866,
2011-08-26, 02:54:04,VALID,1008.257,VALID,0.0,VALID,89.481,VALID,0.0,VALID,23.382,VALID,163.0,VALID,0.523,
2011-08-26, 02:55:04,VALID,1008.238,VALID,0.0,VALID,89.801,VALID,0.0,VALID,23.343,VALID,163.0,VALID,0.396,
2011-08-26, 02:56:04,VALID,1008.215,VALID,0.0,VALID,90.22,VALID,0.0,VALID,23.326,VALID,137.0,VALID,0.745,
2011-08-26, 02:57:04,VALID,1008.21,VALID,0.0,VALID,90.762,VALID,0.0,VALID,23.265,VALID,152.0,VALID,0.7,
2011-08-26, 02:58:04,VALID,1008.227,VALID,0.0,VALID,91.242,VALID,0.0,VALID,23.246,VALID,152.0,VALID,0.686,
2011-08-26, 02:59:04,VALID,1008.225,VALID,0.0,VALID,91.433,VALID,0.0,VALID,23.246,VALID,163.0,VALID,0.919,
2011-08-26, 03:00:04,VALID,1008.214,VALID,0.0,VALID,91.57,VALID,0.0,VALID,23.226,VALID,162.0,VALID,0.5,
2011-08-26, 03:01:04,VALID,1008.221,VALID,0.0,VALID,91.921,VALID,0.0,VALID,23.187,VALID,162.0,VALID,0.592,
2011-08-26, 03:02:04,VALID,1008.214,VALID,0.0,VALID,92.302,VALID,0.0,VALID,23.168,VALID,158.0,VALID,0.61,
2011-08-26, 03:03:04,VALID,1008.197,VALID,0.0,VALID,92.783,VALID,0.0,VALID,23.168,VALID,142.0,VALID,0.799,
2011-08-26, 03:04:04,VALID,1008.206,VALID,0.0,VALID,92.714,VALID,0.0,VALID,23.148,VALID,152.0,VALID,0.617,
2011-08-26, 03:05:04,VALID,1008.171,VALID,0.0,VALID,93.065,VALID,0.0,VALID,23.129,VALID,153.0,VALID,0.908,
2011-08-26, 03:06:04,VALID,1008.188,VALID,0.0,VALID,93.332,VALID,0.0,VALID,23.129,VALID,152.0,VALID,0.744,
2011-08-26, 03:07:04,VALID,1008.164,VALID,0.0,VALID,93.507,VALID,0.0,VALID,23.15,VALID,144.0,VALID,1.132,
2011-08-26, 03:08:04,VALID,1008.166,VALID,0.0,VALID,93.393,VALID,0.0,VALID,23.129,VALID,152.0,VALID,0.992,
2011-08-26, 03:09:04,VALID,1008.167,VALID,0.0,VALID,93.4,VALID,0.0,VALID,23.129,VALID,150.0,VALID,1.054,
2011-08-26, 03:10:04,VALID,1008.174,VALID,0.0,VALID,93.568,VALID,0.0,VALID,23.15,VALID,159.0,VALID,1.494,
2011-08-26, 03:11:04,VALID,1008.183,VALID,0.0,VALID,93.347,VALID,0.0,VALID,23.168,VALID,144.0,VALID,1.108,
2011-08-26, 03:12:04,VALID,1008.168,VALID,0.0,VALID,93.423,VALID,0.0,VALID,23.168,VALID,146.0,VALID,0.739,
2011-08-26, 03:13:04,VALID,1008.17,VALID,0.0,VALID,93.263,VALID,0.0,VALID,23.148,VALID,136.0,VALID,0.255,
2011-08-26, 03:14:04,VALID,1008.185,VALID,0.0,VALID,93.332,VALID,0.0,VALID,23.131,VALID,136.0,VALID,0.397,
2011-08-26, 03:15:04,VALID,1008.195,VALID,0.0,VALID,93.629,VALID,0.0,VALID,23.092,VALID,136.0,VALID,0.721,
2011-08-26, 03:16:04,VALID,1008.169,VALID,0.0,VALID,94.01,VALID,0.0,VALID,23.09,VALID,150.0,VALID,0.571,
2011-08-26, 03:17:04,VALID,1008.161,VALID,0.0,VALID,94.064,VALID,0.0,VALID,23.071,VALID,161.0,VALID,1.169,
2011-08-26, 03:18:04,VALID,1008.168,VALID,0.0,VALID,94.201,VALID,0.0,VALID,23.071,VALID,152.0,VALID,1.245,
2011-08-26, 03:19:04,VALID,1008.136,VALID,0.0,VALID,94.27,VALID,0.0,VALID,23.111,VALID,148.0,VALID,0.809,
2011-08-26, 03:20:04,VALID,1008.149,VALID,0.0,VALID,94.3,VALID,0.0,VALID,23.09,VALID,145.0,VALID,1.56,
2011-08-26, 03:21:04,VALID,1008.143,VALID,0.0,VALID,94.056,VALID,0.0,VALID,23.131,VALID,156.0,VALID,1.348,
2011-08-26, 03:22:04,VALID,1008.143,VALID,0.0,VALID,94.079,VALID,0.0,VALID,23.129,VALID,152.0,VALID,1.385,
2011-08-26, 03:23:04,VALID,1008.149,VALID,0.0,VALID,93.911,VALID,0.0,VALID,23.109,VALID,153.0,VALID,0.655,
2011-08-26, 03:24:04,VALID,1008.183,VALID,0.0,VALID,94.178,VALID,0.0,VALID,23.109,VALID,163.0,VALID,1.106,
2011-08-26, 03:25:04,VALID,1008.185,VALID,0.0,VALID,94.087,VALID,0.0,VALID,23.09,VALID,141.0,VALID,1.235,
2011-08-26, 03:26:04,VALID,1008.195,VALID,0.0,VALID,94.315,VALID,0.0,VALID,23.129,VALID,140.0,VALID,0.983,
2011-08-26, 03:27:04,VALID,1008.185,VALID,0.0,VALID,94.384,VALID,0.0,VALID,23.109,VALID,132.0,VALID,0.865,
2011-08-26, 03:28:04,VALID,1008.203,VALID,0.0,VALID,94.392,VALID,0.0,VALID,23.109,VALID,150.0,VALID,1.384,
2011-08-26, 03:29:04,VALID,1008.143,VALID,0.0,VALID,94.483,VALID,0.0,VALID,23.109,VALID,145.0,VALID,1.192,
2011-08-26, 03:30:04,VALID,1008.111,VALID,0.0,VALID,94.46,VALID,0.0,VALID,23.09,VALID,158.0,VALID,0.875,
2011-08-26, 03:31:04,VALID,1008.084,VALID,0.0,VALID,94.544,VALID,0.106,VALID,23.071,VALID,174.0,VALID,0.555,
2011-08-26, 03:32:04,VALID,1008.074,VALID,0.0,VALID,94.742,VALID,0.0,VALID,23.032,VALID,165.0,VALID,0.589,
2011-08-26, 03:33:04,VALID,1008.087,VALID,0.0,VALID,95.307,VALID,0.0,VALID,22.993,VALID,167.0,VALID,0.678,
2011-08-26, 03:34:04,VALID,1008.133,VALID,0.0,VALID,95.848,VALID,0.0,VALID,22.973,VALID,160.0,VALID,0.838,
2011-08-26, 03:35:04,VALID,1008.159,VALID,0.0,VALID,96.29,VALID,0.0,VALID,23.012,VALID,139.0,VALID,0.741,
2011-08-26, 03:36:04,VALID,1008.227,VALID,0.0,VALID,96.481,VALID,0.0,VALID,23.032,VALID,159.0,VALID,0.841,
2011-08-26, 03:37:04,VALID,1008.24,VALID,0.0,VALID,96.641,VALID,0.0,VALID,23.032,VALID,151.0,VALID,0.809,
2011-08-26, 03:38:04,VALID,1008.236,VALID,0.0,VALID,96.611,VALID,0.0,VALID,23.051,VALID,154.0,VALID,1.177,
2011-08-26, 03:39:04,VALID,1008.254,VALID,0.0,VALID,96.55,VALID,0.0,VALID,23.071,VALID,154.0,VALID,0.933,
2011-08-26, 03:40:04,VALID,1008.242,VALID,0.0,VALID,96.481,VALID,0.0,VALID,23.109,VALID,158.0,VALID,2.041,